User: anonymous   Login
Location: Newsoms
(36.6240°N, 77.1250°W)
Time: 23:40:55
(UTC-04:00)
Language:

BREEZE-M DEB (TANK) - Orbit

View from above orbital plane
View from above orbital plane
View from above satellite
View from above satellite

Ground track
Ground track

The orbit data is extracted from the following two-line orbital elements,

1 29649U 06056B   17175.34088228 -.00000809 +00000-0 -24132-3 0  9997
2 29649 049.4869 228.5276 5364722 165.8265 218.8611 04.99640682188143
Epoch (UTC): 24 June 2017 08:10:52
Eccentricity: 0.5364722
inclination: 49.4869°
perigee height: 321 km
apogee height: 15828 km
right ascension of ascending node: 228.5276°
argument of perigee: 165.8265°
revolutions per day: 4.99640682
mean anomaly at epoch: 218.8611°
orbit number at epoch: 18814

The dashed part of the orbit path shows where the satellite is in the earth's shadow,  

DLR